This is the latest recevied weather packets stored in our database for station/object DB0MW-13. If no packets are shown the sender has not sent any weather packets the latest 10 day(s).
| Time | Temp. | Humidity | Pressure | Rain* | Wind** | Luminosity | Snow |
|---|---|---|---|---|---|---|---|
| 1788428701 | 20.56° C | 63% | 1021.9 hPa | 0 mm | - | - | - |
| 1788428401 | 20° C | 64% | 1022 hPa | 0 mm | - | - | - |
| 1788428100 | 20° C | 65% | 1021.9 hPa | 0 mm | - | - | - |
| 1788427800 | 20° C | 65% | 1022 hPa | 0 mm | - | - | - |
| 1788427500 | 20° C | 62% | 1022.1 hPa | 0 mm | - | - | - |
| 1788427200 | 20° C | 62% | 1021.9 hPa | 0 mm | - | - | - |
| 1788426900 | 19.44° C | 62% | 1022.1 hPa | 0 mm | - | - | - |
| 1788426600 | 19.44° C | 64% | 1022.4 hPa | 0 mm | - | - | - |
| 1788426300 | 19.44° C | 64% | 1022.4 hPa | 0 mm | - | - | - |
| 1788426000 | 18.89° C | 65% | 1022.9 hPa | 0 mm | - | - | - |
| 1788425700 | 18.89° C | 67% | 1022.7 hPa | 0 mm | - | - | - |
| 1788425400 | 18.89° C | 66% | 1022.5 hPa | 0 mm | - | - | - |
| 1788424800 | 18.33° C | 66% | 1022.4 hPa | 0 mm | - | - | - |
| 1788424500 | 18.33° C | 66% | 1022.5 hPa | 0 mm | - | - | - |
| 1788424201 | 18.33° C | 66% | 1022.7 hPa | 0 mm | - | - | - |
| 1788423901 | 18.33° C | 66% | 1022.6 hPa | 0 mm | - | - | - |
| 1788423601 | 17.78° C | 66% | 1022.5 hPa | 0 mm | - | - | - |
| 1788423301 | 17.78° C | 66% | 1022.4 hPa | 0 mm | - | - | - |
| 1788423001 | 17.78° C | 68% | 1022.5 hPa | 0 mm | - | - | - |
| 1788422701 | 17.78° C | 67% | 1022.6 hPa | 0 mm | - | - | - |
| 1788422401 | 17.22° C | 70% | 1022.6 hPa | 0 mm | - | - | - |
| 1788422101 | 17.22° C | 71% | 1022.7 hPa | 0 mm | - | - | - |
| 1788421801 | 16.67° C | 72% | 1022.4 hPa | 0 mm | - | - | - |
| 1788421201 | 16.67° C | 73% | 1022.5 hPa | 0 mm | - | - | - |
| 1788420901 | 16.11° C | 74% | 1022.5 hPa | 0 mm | - | - | - |
* Rain latest hour (hover to see other rain measurements)
** Current wind speed in m/s (hover to see current wind gust speed)